Regional Weather Roundup
Issued by NWS

Home | Current Version | Previous Version | Text Only | Print | Product List | Glossary Off
Versions: 1 2 3 4 5 6 7 8 9 10 11 12 13 14 15 16 17 18 19 20 21 22 23 24 25 26 27 28 29 30 31 32 33 34 35 36 37 38 39 40 41 42 43 44 45 46 47 48 49 50

836
ASUS43 KIND 101709
RWRIN

WEATHER ROUNDUP FOR INDIANA
NATIONAL WEATHER SERVICE INDIANAPOLIS IN
1200 PM EST WED FEB 10 2016

NOTE: "FAIR" INDICATES FEW OR NO CLOUDS BELOW 12,000 FEET WITH NO
SIGNIFICANT WEATHER AND/OR OBSTRUCTIONS TO VISIBILITY.

* - STATION DOES NOT REPORT WEATHER SUCH AS PRECIPITATION OR FOG.

+ - STATION NOT QUALITY CONTROLLED BY THE NATIONAL WEATHER SERVICE.
    USE DATA WITH CAUTION...ESPECIALLY DEWPOINT AND RELATIVE
    HUMIDITY OBSERVATIONS.

INZ001>003-010>013-019-020-101800-
NORTHWEST INDIANA

CITY           SKY/WX    TMP DP  RH WIND       PRES   REMARKS
GARY /AIRPORT/ PTSUNNY   18   0  45 W14       30.05S WCI   4
KNOX *+        SUNNY     18   7  62 W17       30.00S WCI   2
LA PORTE +       N/A     19  12  74 W12G22    29.99S HAZE    WCI   6
MICHIGAN CITY+ CLOUDY    19  10  68 NW12G18   30.01R WCI   7
MONTICELLO +   PTSUNNY   15   2  55 W13       30.04S WCI   1
RENSSELAER +   MOSUNNY   18   3  53 NW12      30.04F WCI   5
VALPARAISO     CLOUDY    15   4  61 NW12      30.02R WCI   2

$$

LMZ046-743>745-101800-
SOUTHERN LAKE MICHIGAN

STATION/POSITION TIME  TEMP    WIND        PRES    WAVE
                       AIR SEA DIR/SP/G            HT
                 (UTC) (F)     (DEG/KT/KT) (MB)    (FT)
BURNS HARBOR     1704   16     310/ 15/ 22 1017.3R
MICHIGAN CITY    1600   16     260/ 20/ 24   N/A

$$

INZ004-005-014>016-021>024-101800-
NORTH CENTRAL INDIANA

CITY           SKY/WX    TMP DP  RH WIND       PRES   REMARKS
ELKHART        CLOUDY    19  10  68 NW14G22   29.95R WCI   6
GOSHEN         LGT SNOW  18  14  84 W13       29.93S VSB 3/4 WCI   5
LOGANSPORT +   SUNNY     16   3  57 W15       30.03S WCI   1
PERU/GRISSOM   PTSUNNY   15   6  69 W15       29.99S WCI  -1
ROCHESTER +    SUNNY     21   5  49 W13G18    29.99S WCI   9
SOUTH BEND     SNOW      17  13  84 W15       29.96S VSB 1/2 WCI   2
WARSAW +       LGT SNOW  19  12  73 W14G21    29.95S WCI   6

$$

INZ006>009-017-018-025>027-101800-
NORTHEAST INDIANA

CITY           SKY/WX    TMP DP  RH WIND       PRES   REMARKS
ANGOLA *+      CLOUDY    18  14  86 NW8       29.88R WCI   7
AUBURN +       LGT SNOW  23  14  68 W16       29.92S WCI  10
FORT WAYNE     FLURRIES  20  10  65 W21       29.95S WCI   4
HUNTINGTON +   CLOUDY    16   6  64 W14G22    29.97S HAZE    WCI   1

$$

INZ028-029-035-036-043>045-051>053-101800-
WEST CENTRAL INDIANA

CITY           SKY/WX    TMP DP  RH WIND       PRES   REMARKS
GREENCASTLE +  CLOUDY    14   0  52 W9G17     30.08F WCI   2
LAFAYETTE      PTSUNNY   14   5  67 NW13      30.07S WCI   0
TERRE HAUTE    MOSUNNY   16   4  59 W10G17    30.12F WCI   4

$$

INZ030>032-037>040-046>048-054>057-064-065-101800-
CENTRAL INDIANA

CITY           SKY/WX    TMP DP  RH WIND       PRES   REMARKS
ANDERSON       MOSUNNY   16   5  62 W12G23    30.02R WCI   3
FRANKFORT +    MOSUNNY   15   1  51 W14       30.05F WCI   1
GREENWOOD *+   PTSUNNY   16   7  67 W17       30.06R WCI   0
INDIANAPOLIS   PTSUNNY   14   5  67 W18       30.06R WCI  -3
-EAGLE CREEK   CLOUDY    13   5  70 W14G20    30.05S WCI  -2
KOKOMO *+      PTSUNNY   14   5  67 W18       30.01S WCI  -3
MARION +       PTSUNNY   15   2  57 W20       30.01R WCI  -3
MT COMFORT *+  CLOUDY    16   7  67 W14G20    30.04S WCI   1
SHELBYVILLE    CLOUDY    16   6  65 W15       30.05R WCI   1
ZIONSVILLE +   MOSUNNY   13   4  70 W13G21    30.04S WCI  -2

$$

INZ033-034-041-042-049-050-058-059-101800-
EAST CENTRAL INDIANA

CITY           SKY/WX    TMP DP  RH WIND       PRES   REMARKS
MUNCIE         PTSUNNY   16   6  65 W14       29.99S WCI   2

$$

INZ060-061-067>069-081>083-085>088-101800-
SOUTHWEST INDIANA

CITY           SKY/WX    TMP DP  RH WIND       PRES   REMARKS
EVANSVILLE     MOSUNNY   21   6  52 NW8       30.20S WCI  11
HUNTINGBURG *+ PTSUNNY   19   9  63 W12       30.17S WCI   7
WASHINGTON +   PTSUNNY   17   6  60 W10       30.16S WCI   5

$$

INZ062-063-066-070>080-084-089>092-101800-
SOUTH CENTRAL AND SOUTHEAST INDIANA

CITY           SKY/WX    TMP DP  RH WIND       PRES   REMARKS
BLOOMINGTON    CLOUDY    15   4  61 W15       30.09R WCI   0
MADISON *+     PTSUNNY   19   5  53 W14       30.10R WCI   6
NORTH VERNON + CLOUDY    18   7  62 W12       30.08R WCI   5
SEYMOUR +      PTSUNNY   19   7  58 W16G23    30.11R WCI   5

$$





USA.gov is the U.S. government's official web portal to all federal, state and local government web resources and services.